Time,TemperatureF,DewpointF,PressureIn,WindDirection,WindDirectionDegrees,WindSpeedMPH,WindSpeedGustMPH,Humidity,HourlyPrecipIn,Conditions,Clouds,dailyrainin,SoftwareType,DateUTC
2013-07-27 00:00:00,65.2,45.5,30.11,North,-999,-999.0,-999.0,48,0.00,,,0.00,AD6XL-WX-0.1,2013-07-27 07:00:00,
2013-07-27 00:05:00,65.0,45.4,30.11,North,-999,-999.0,-999.0,48,0.00,,,0.00,AD6XL-WX-0.1,2013-07-27 07:05:00,
2013-07-27 00:10:00,64.8,45.4,30.11,North,-999,-999.0,-999.0,49,0.00,,,0.00,AD6XL-WX-0.1,2013-07-27 07:10:00,
2013-07-27 00:15:00,64.6,45.4,30.12,North,-999,-999.0,-999.0,49,0.00,,,0.00,AD6XL-WX-0.1,2013-07-27 07:15:00,
2013-07-27 00:20:00,64.5,45.4,30.12,North,-999,-999.0,-999.0,50,0.00,,,0.00,AD6XL-WX-0.1,2013-07-27 07:20:00,
2013-07-27 00:25:00,64.3,45.4,30.12,North,-999,-999.0,-999.0,50,0.00,,,0.00,AD6XL-WX-0.1,2013-07-27 07:25:00,
2013-07-27 00:30:00,64.1,45.5,30.12,North,-999,-999.0,-999.0,50,0.00,,,0.00,AD6XL-WX-0.1,2013-07-27 07:30:00,
2013-07-27 00:35:00,63.9,45.5,30.12,North,-999,-999.0,-999.0,51,0.00,,,0.00,AD6XL-WX-0.1,2013-07-27 07:35:00,
2013-07-27 00:40:00,63.7,45.5,30.12,North,-999,-999.0,-999.0,51,0.00,,,0.00,AD6XL-WX-0.1,2013-07-27 07:40:00,
2013-07-27 00:46:00,63.6,45.5,30.12,North,-999,-999.0,-999.0,51,0.00,,,0.00,AD6XL-WX-0.1,2013-07-27 07:46:00,
2013-07-27 00:51:00,63.5,45.4,30.12,North,-999,-999.0,-999.0,51,0.00,,,0.00,AD6XL-WX-0.1,2013-07-27 07:51:00,
2013-07-27 00:56:00,63.4,45.2,30.12,North,-999,-999.0,-999.0,51,0.00,,,0.00,AD6XL-WX-0.1,2013-07-27 07:56:00,
2013-07-27 01:01:00,63.3,45.0,30.12,North,-999,-999.0,-999.0,51,0.00,,,0.00,AD6XL-WX-0.1,2013-07-27 08:01:00,
2013-07-27 01:06:00,63.3,44.8,30.12,North,-999,-999.0,-999.0,50,0.00,,,0.00,AD6XL-WX-0.1,2013-07-27 08:06:00,
2013-07-27 01:11:00,63.1,44.7,30.12,North,-999,-999.0,-999.0,51,0.00,,,0.00,AD6XL-WX-0.1,2013-07-27 08:11:00,
2013-07-27 01:16:00,63.0,44.8,30.12,North,-999,-999.0,-999.0,51,0.00,,,0.00,AD6XL-WX-0.1,2013-07-27 08:16:00,
2013-07-27 01:22:00,62.8,44.9,30.13,North,-999,-999.0,-999.0,52,0.00,,,0.00,AD6XL-WX-0.1,2013-07-27 08:22:00,
2013-07-27 01:27:00,62.5,45.2,30.13,North,-999,-999.0,-999.0,52,0.00,,,0.00,AD6XL-WX-0.1,2013-07-27 08:27:00,
2013-07-27 01:32:00,62.3,45.4,30.13,North,-999,-999.0,-999.0,53,0.00,,,0.00,AD6XL-WX-0.1,2013-07-27 08:32:00,
2013-07-27 01:37:00,62.1,45.5,30.13,North,-999,-999.0,-999.0,54,0.00,,,0.00,AD6XL-WX-0.1,2013-07-27 08:37:00,
2013-07-27 01:42:00,61.9,45.5,30.13,North,-999,-999.0,-999.0,54,0.00,,,0.00,AD6XL-WX-0.1,2013-07-27 08:42:00,
2013-07-27 01:47:00,61.7,45.4,30.13,North,-999,-999.0,-999.0,55,0.00,,,0.00,AD6XL-WX-0.1,2013-07-27 08:47:00,
2013-07-27 01:52:00,61.4,45.4,30.13,North,-999,-999.0,-999.0,55,0.00,,,0.00,AD6XL-WX-0.1,2013-07-27 08:52:00,
2013-07-27 01:57:00,61.2,45.5,30.13,North,-999,-999.0,-999.0,56,0.00,,,0.00,AD6XL-WX-0.1,2013-07-27 08:57:00,
2013-07-27 02:02:00,61.1,45.6,30.13,North,-999,-999.0,-999.0,56,0.00,,,0.00,AD6XL-WX-0.1,2013-07-27 09:02:00,
2013-07-27 02:07:00,60.9,45.7,30.13,North,-999,-999.0,-999.0,57,0.00,,,0.00,AD6XL-WX-0.1,2013-07-27 09:07:00,
2013-07-27 02:13:00,60.7,45.9,30.13,North,-999,-999.0,-999.0,58,0.00,,,0.00,AD6XL-WX-0.1,2013-07-27 09:13:00,
2013-07-27 02:18:00,60.5,46.2,30.13,North,-999,-999.0,-999.0,59,0.00,,,0.00,AD6XL-WX-0.1,2013-07-27 09:18:00,
2013-07-27 02:23:00,60.3,46.4,30.13,North,-999,-999.0,-999.0,60,0.00,,,0.00,AD6XL-WX-0.1,2013-07-27 09:23:00,
2013-07-27 02:28:00,60.1,46.7,30.13,North,-999,-999.0,-999.0,61,0.00,,,0.00,AD6XL-WX-0.1,2013-07-27 09:28:00,
2013-07-27 02:33:00,60.0,46.7,30.13,North,-999,-999.0,-999.0,61,0.00,,,0.00,AD6XL-WX-0.1,2013-07-27 09:33:00,
2013-07-27 02:38:00,59.8,46.8,30.13,North,-999,-999.0,-999.0,62,0.00,,,0.00,AD6XL-WX-0.1,2013-07-27 09:38:00,
2013-07-27 02:43:00,59.6,46.7,30.13,North,-999,-999.0,-999.0,62,0.00,,,0.00,AD6XL-WX-0.1,2013-07-27 09:43:00,
2013-07-27 02:48:00,59.4,46.6,30.13,North,-999,-999.0,-999.0,62,0.00,,,0.00,AD6XL-WX-0.1,2013-07-27 09:48:00,
2013-07-27 02:53:00,59.2,46.6,30.13,North,-999,-999.0,-999.0,63,0.00,,,0.00,AD6XL-WX-0.1,2013-07-27 09:53:00,
2013-07-27 02:58:00,59.0,46.6,30.13,North,-999,-999.0,-999.0,63,0.00,,,0.00,AD6XL-WX-0.1,2013-07-27 09:58:00,
2013-07-27 03:04:00,58.9,46.6,30.13,North,-999,-999.0,-999.0,63,0.00,,,0.00,AD6XL-WX-0.1,2013-07-27 10:04:00,
2013-07-27 03:09:00,58.8,46.6,30.13,North,-999,-999.0,-999.0,64,0.00,,,0.00,AD6XL-WX-0.1,2013-07-27 10:09:00,
2013-07-27 03:14:00,58.7,46.6,30.13,North,-999,-999.0,-999.0,64,0.00,,,0.00,AD6XL-WX-0.1,2013-07-27 10:14:00,
2013-07-27 03:19:00,58.7,46.6,30.13,North,-999,-999.0,-999.0,64,0.00,,,0.00,AD6XL-WX-0.1,2013-07-27 10:19:00,
2013-07-27 03:24:00,58.6,46.5,30.13,North,-999,-999.0,-999.0,64,0.00,,,0.00,AD6XL-WX-0.1,2013-07-27 10:24:00,
2013-07-27 03:29:00,58.5,46.5,30.13,North,-999,-999.0,-999.0,64,0.00,,,0.00,AD6XL-WX-0.1,2013-07-27 10:29:00,
2013-07-27 03:34:00,58.3,46.6,30.14,North,-999,-999.0,-999.0,65,0.00,,,0.00,AD6XL-WX-0.1,2013-07-27 10:34:00,
2013-07-27 03:39:00,58.1,46.6,30.14,North,-999,-999.0,-999.0,65,0.00,,,0.00,AD6XL-WX-0.1,2013-07-27 10:39:00,
2013-07-27 03:44:00,57.9,46.7,30.14,North,-999,-999.0,-999.0,66,0.00,,,0.00,AD6XL-WX-0.1,2013-07-27 10:44:00,
2013-07-27 03:49:00,57.8,46.9,30.14,North,-999,-999.0,-999.0,66,0.00,,,0.00,AD6XL-WX-0.1,2013-07-27 10:49:00,
2013-07-27 03:54:00,57.7,47.0,30.14,North,-999,-999.0,-999.0,67,0.00,,,0.00,AD6XL-WX-0.1,2013-07-27 10:54:00,
2013-07-27 04:00:00,57.5,47.2,30.14,North,-999,-999.0,-999.0,68,0.00,,,0.00,AD6XL-WX-0.1,2013-07-27 11:00:00,
2013-07-27 04:05:00,57.4,47.3,30.14,North,-999,-999.0,-999.0,68,0.00,,,0.00,AD6XL-WX-0.1,2013-07-27 11:05:00,
2013-07-27 04:10:00,57.2,47.3,30.14,North,-999,-999.0,-999.0,69,0.00,,,0.00,AD6XL-WX-0.1,2013-07-27 11:10:00,
2013-07-27 04:15:00,57.1,47.3,30.14,North,-999,-999.0,-999.0,69,0.00,,,0.00,AD6XL-WX-0.1,2013-07-27 11:15:00,
2013-07-27 04:20:00,57.0,47.3,30.14,North,-999,-999.0,-999.0,70,0.00,,,0.00,AD6XL-WX-0.1,2013-07-27 11:20:00,
2013-07-27 04:25:00,56.9,47.3,30.14,North,-999,-999.0,-999.0,70,0.00,,,0.00,AD6XL-WX-0.1,2013-07-27 11:25:00,
2013-07-27 04:30:00,56.7,47.3,30.14,North,-999,-999.0,-999.0,70,0.00,,,0.00,AD6XL-WX-0.1,2013-07-27 11:30:00,
2013-07-27 04:35:00,56.6,47.4,30.14,North,-999,-999.0,-999.0,71,0.00,,,0.00,AD6XL-WX-0.1,2013-07-27 11:35:00,
2013-07-27 04:40:00,56.5,47.4,30.14,North,-999,-999.0,-999.0,71,0.00,,,0.00,AD6XL-WX-0.1,2013-07-27 11:40:00,
2013-07-27 04:45:00,56.4,47.5,30.14,North,-999,-999.0,-999.0,72,0.00,,,0.00,AD6XL-WX-0.1,2013-07-27 11:45:00,
2013-07-27 04:51:00,56.2,47.5,30.14,North,-999,-999.0,-999.0,72,0.00,,,0.00,AD6XL-WX-0.1,2013-07-27 11:51:00,
2013-07-27 04:56:00,56.1,47.5,30.14,North,-999,-999.0,-999.0,72,0.00,,,0.00,AD6XL-WX-0.1,2013-07-27 11:56:00,
2013-07-27 05:01:00,56.0,47.6,30.14,North,-999,-999.0,-999.0,73,0.00,,,0.00,AD6XL-WX-0.1,2013-07-27 12:01:00,
2013-07-27 05:06:00,55.9,47.6,30.14,North,-999,-999.0,-999.0,73,0.00,,,0.00,AD6XL-WX-0.1,2013-07-27 12:06:00,
2013-07-27 05:11:00,55.9,47.7,30.14,North,-999,-999.0,-999.0,74,0.00,,,0.00,AD6XL-WX-0.1,2013-07-27 12:11:00,
2013-07-27 05:16:00,55.8,47.8,30.15,North,-999,-999.0,-999.0,74,0.00,,,0.00,AD6XL-WX-0.1,2013-07-27 12:16:00,
2013-07-27 05:21:00,55.7,47.8,30.15,North,-999,-999.0,-999.0,74,0.00,,,0.00,AD6XL-WX-0.1,2013-07-27 12:21:00,
2013-07-27 05:26:00,55.7,47.8,30.15,North,-999,-999.0,-999.0,74,0.00,,,0.00,AD6XL-WX-0.1,2013-07-27 12:26:00,
2013-07-27 05:32:00,55.6,47.8,30.15,North,-999,-999.0,-999.0,74,0.00,,,0.00,AD6XL-WX-0.1,2013-07-27 12:32:00,
2013-07-27 05:37:00,55.6,47.8,30.15,North,-999,-999.0,-999.0,74,0.00,,,0.00,AD6XL-WX-0.1,2013-07-27 12:37:00,
2013-07-27 05:42:00,55.5,47.8,30.15,North,-999,-999.0,-999.0,75,0.00,,,0.00,AD6XL-WX-0.1,2013-07-27 12:42:00,
2013-07-27 05:47:00,55.4,47.8,30.15,North,-999,-999.0,-999.0,75,0.00,,,0.00,AD6XL-WX-0.1,2013-07-27 12:47:00,
2013-07-27 05:52:00,55.3,47.9,30.15,North,-999,-999.0,-999.0,76,0.00,,,0.00,AD6XL-WX-0.1,2013-07-27 12:52:00,
2013-07-27 05:57:00,55.2,48.0,30.15,North,-999,-999.0,-999.0,76,0.00,,,0.00,AD6XL-WX-0.1,2013-07-27 12:57:00,
2013-07-27 06:02:00,55.0,48.1,30.15,North,-999,-999.0,-999.0,77,0.00,,,0.00,AD6XL-WX-0.1,2013-07-27 13:02:00,
2013-07-27 06:07:00,54.9,48.2,30.15,North,-999,-999.0,-999.0,78,0.00,,,0.00,AD6XL-WX-0.1,2013-07-27 13:07:00,
2013-07-27 06:12:00,54.8,48.3,30.15,North,-999,-999.0,-999.0,78,0.00,,,0.00,AD6XL-WX-0.1,2013-07-27 13:12:00,
2013-07-27 06:17:00,54.6,48.3,30.15,North,-999,-999.0,-999.0,79,0.00,,,0.00,AD6XL-WX-0.1,2013-07-27 13:17:00,
2013-07-27 06:22:00,54.5,48.4,30.15,North,-999,-999.0,-999.0,79,0.00,,,0.00,AD6XL-WX-0.1,2013-07-27 13:22:00,
2013-07-27 06:28:00,54.4,48.4,30.15,North,-999,-999.0,-999.0,80,0.00,,,0.00,AD6XL-WX-0.1,2013-07-27 13:28:00,
2013-07-27 06:33:00,54.3,48.4,30.15,North,-999,-999.0,-999.0,80,0.00,,,0.00,AD6XL-WX-0.1,2013-07-27 13:33:00,
2013-07-27 06:38:00,54.3,48.4,30.15,North,-999,-999.0,-999.0,80,0.00,,,0.00,AD6XL-WX-0.1,2013-07-27 13:38:00,
2013-07-27 06:43:00,54.4,48.4,30.15,North,-999,-999.0,-999.0,80,0.00,,,0.00,AD6XL-WX-0.1,2013-07-27 13:43:00,
2013-07-27 06:48:00,54.5,48.6,30.15,North,-999,-999.0,-999.0,80,0.00,,,0.00,AD6XL-WX-0.1,2013-07-27 13:48:00,
2013-07-27 06:53:00,54.7,48.7,30.15,North,-999,-999.0,-999.0,80,0.00,,,0.00,AD6XL-WX-0.1,2013-07-27 13:53:00,
2013-07-27 06:58:00,54.9,48.8,30.16,North,-999,-999.0,-999.0,79,0.00,,,0.00,AD6XL-WX-0.1,2013-07-27 13:58:00,
2013-07-27 07:03:00,55.1,48.9,30.16,North,-999,-999.0,-999.0,79,0.00,,,0.00,AD6XL-WX-0.1,2013-07-27 14:03:00,
2013-07-27 07:08:00,55.2,48.9,30.16,North,-999,-999.0,-999.0,79,0.00,,,0.00,AD6XL-WX-0.1,2013-07-27 14:08:00,
2013-07-27 07:13:00,55.4,48.9,30.16,North,-999,-999.0,-999.0,78,0.00,,,0.00,AD6XL-WX-0.1,2013-07-27 14:13:00,
2013-07-27 07:19:00,55.5,48.9,30.16,North,-999,-999.0,-999.0,78,0.00,,,0.00,AD6XL-WX-0.1,2013-07-27 14:19:00,
2013-07-27 07:24:00,55.7,48.9,30.16,North,-999,-999.0,-999.0,77,0.00,,,0.00,AD6XL-WX-0.1,2013-07-27 14:24:00,
2013-07-27 07:29:00,55.9,48.9,30.16,North,-999,-999.0,-999.0,77,0.00,,,0.00,AD6XL-WX-0.1,2013-07-27 14:29:00,
2013-07-27 07:34:00,56.0,48.9,30.16,North,-999,-999.0,-999.0,77,0.00,,,0.00,AD6XL-WX-0.1,2013-07-27 14:34:00,
2013-07-27 07:39:00,56.2,49.0,30.16,North,-999,-999.0,-999.0,76,0.00,,,0.00,AD6XL-WX-0.1,2013-07-27 14:39:00,
2013-07-27 07:44:00,56.4,49.1,30.16,North,-999,-999.0,-999.0,76,0.00,,,0.00,AD6XL-WX-0.1,2013-07-27 14:44:00,
2013-07-27 07:49:00,56.7,49.2,30.16,North,-999,-999.0,-999.0,76,0.00,,,0.00,AD6XL-WX-0.1,2013-07-27 14:49:00,
2013-07-27 07:54:00,56.9,49.2,30.16,North,-999,-999.0,-999.0,75,0.00,,,0.00,AD6XL-WX-0.1,2013-07-27 14:54:00,
2013-07-27 07:59:00,57.1,49.2,30.16,North,-999,-999.0,-999.0,74,0.00,,,0.00,AD6XL-WX-0.1,2013-07-27 14:59:00,
2013-07-27 08:04:00,57.4,49.3,30.16,North,-999,-999.0,-999.0,74,0.00,,,0.00,AD6XL-WX-0.1,2013-07-27 15:04:00,
2013-07-27 08:10:00,57.7,49.4,30.16,North,-999,-999.0,-999.0,73,0.00,,,0.00,AD6XL-WX-0.1,2013-07-27 15:10:00,
2013-07-27 08:15:00,58.1,49.4,30.16,North,-999,-999.0,-999.0,72,0.00,,,0.00,AD6XL-WX-0.1,2013-07-27 15:15:00,
2013-07-27 08:20:00,58.4,49.4,30.16,North,-999,-999.0,-999.0,72,0.00,,,0.00,AD6XL-WX-0.1,2013-07-27 15:20:00,
2013-07-27 08:25:00,58.6,49.3,30.16,North,-999,-999.0,-999.0,71,0.00,,,0.00,AD6XL-WX-0.1,2013-07-27 15:25:00,
2013-07-27 08:30:00,58.9,49.3,30.16,North,-999,-999.0,-999.0,70,0.00,,,0.00,AD6XL-WX-0.1,2013-07-27 15:30:00,
2013-07-27 08:35:00,59.1,49.2,30.16,North,-999,-999.0,-999.0,69,0.00,,,0.00,AD6XL-WX-0.1,2013-07-27 15:35:00,
2013-07-27 08:40:00,59.3,49.4,30.16,North,-999,-999.0,-999.0,69,0.00,,,0.00,AD6XL-WX-0.1,2013-07-27 15:40:00,
2013-07-27 08:45:00,59.6,49.5,30.16,North,-999,-999.0,-999.0,69,0.00,,,0.00,AD6XL-WX-0.1,2013-07-27 15:45:00,
2013-07-27 08:50:00,60.0,49.6,30.16,North,-999,-999.0,-999.0,68,0.00,,,0.00,AD6XL-WX-0.1,2013-07-27 15:50:00,
2013-07-27 08:55:00,60.3,49.5,30.16,North,-999,-999.0,-999.0,67,0.00,,,0.00,AD6XL-WX-0.1,2013-07-27 15:55:00,
2013-07-27 09:00:00,60.6,49.5,30.16,North,-999,-999.0,-999.0,67,0.00,,,0.00,AD6XL-WX-0.1,2013-07-27 16:00:00,
2013-07-27 09:06:00,60.8,49.6,30.16,North,-999,-999.0,-999.0,66,0.00,,,0.00,AD6XL-WX-0.1,2013-07-27 16:06:00,
2013-07-27 09:11:00,61.1,49.6,30.15,North,-999,-999.0,-999.0,65,0.00,,,0.00,AD6XL-WX-0.1,2013-07-27 16:11:00,
2013-07-27 09:16:00,61.4,49.5,30.15,North,-999,-999.0,-999.0,64,0.00,,,0.00,AD6XL-WX-0.1,2013-07-27 16:16:00,
2013-07-27 09:21:00,61.7,49.5,30.15,North,-999,-999.0,-999.0,64,0.00,,,0.00,AD6XL-WX-0.1,2013-07-27 16:21:00,
2013-07-27 09:26:00,62.0,49.4,30.15,North,-999,-999.0,-999.0,63,0.00,,,0.00,AD6XL-WX-0.1,2013-07-27 16:26:00,
2013-07-27 09:31:00,62.2,49.4,30.15,North,-999,-999.0,-999.0,62,0.00,,,0.00,AD6XL-WX-0.1,2013-07-27 16:31:00,
2013-07-27 09:36:00,62.5,49.3,30.15,North,-999,-999.0,-999.0,61,0.00,,,0.00,AD6XL-WX-0.1,2013-07-27 16:36:00,
2013-07-27 09:42:00,62.7,49.2,30.15,North,-999,-999.0,-999.0,61,0.00,,,0.00,AD6XL-WX-0.1,2013-07-27 16:42:00,
2013-07-27 09:47:00,63.0,49.2,30.15,North,-999,-999.0,-999.0,60,0.00,,,0.00,AD6XL-WX-0.1,2013-07-27 16:47:00,
2013-07-27 09:52:00,63.2,49.1,30.15,North,-999,-999.0,-999.0,59,0.00,,,0.00,AD6XL-WX-0.1,2013-07-27 16:52:00,
2013-07-27 09:57:00,63.5,49.0,30.15,North,-999,-999.0,-999.0,59,0.00,,,0.00,AD6XL-WX-0.1,2013-07-27 16:57:00,
2013-07-27 10:02:00,63.8,49.1,30.15,North,-999,-999.0,-999.0,58,0.00,,,0.00,AD6XL-WX-0.1,2013-07-27 17:02:00,
2013-07-27 10:07:00,64.1,49.2,30.15,North,-999,-999.0,-999.0,58,0.00,,,0.00,AD6XL-WX-0.1,2013-07-27 17:07:00,
2013-07-27 10:12:00,64.4,49.2,30.15,North,-999,-999.0,-999.0,57,0.00,,,0.00,AD6XL-WX-0.1,2013-07-27 17:12:00,
2013-07-27 10:17:00,64.7,49.0,30.14,North,-999,-999.0,-999.0,56,0.00,,,0.00,AD6XL-WX-0.1,2013-07-27 17:17:00,
2013-07-27 10:22:00,65.0,49.0,30.14,North,-999,-999.0,-999.0,56,0.00,,,0.00,AD6XL-WX-0.1,2013-07-27 17:22:00,
2013-07-27 10:27:00,65.3,49.0,30.14,North,-999,-999.0,-999.0,55,0.00,,,0.00,AD6XL-WX-0.1,2013-07-27 17:27:00,
2013-07-27 10:33:00,65.6,49.1,30.14,North,-999,-999.0,-999.0,55,0.00,,,0.00,AD6XL-WX-0.1,2013-07-27 17:33:00,
2013-07-27 10:38:00,65.9,49.0,30.14,North,-999,-999.0,-999.0,54,0.00,,,0.00,AD6XL-WX-0.1,2013-07-27 17:38:00,
2013-07-27 10:43:00,66.2,48.7,30.14,North,-999,-999.0,-999.0,53,0.00,,,0.00,AD6XL-WX-0.1,2013-07-27 17:43:00,
2013-07-27 10:48:00,66.4,48.4,30.14,North,-999,-999.0,-999.0,52,0.00,,,0.00,AD6XL-WX-0.1,2013-07-27 17:48:00,
2013-07-27 10:53:00,66.7,48.3,30.13,North,-999,-999.0,-999.0,51,0.00,,,0.00,AD6XL-WX-0.1,2013-07-27 17:53:00,
2013-07-27 10:58:00,67.0,48.2,30.13,North,-999,-999.0,-999.0,50,0.00,,,0.00,AD6XL-WX-0.1,2013-07-27 17:58:00,
2013-07-27 11:03:00,67.2,48.3,30.13,North,-999,-999.0,-999.0,50,0.00,,,0.00,AD6XL-WX-0.1,2013-07-27 18:03:00,
2013-07-27 11:08:00,67.5,48.3,30.13,North,-999,-999.0,-999.0,50,0.00,,,0.00,AD6XL-WX-0.1,2013-07-27 18:08:00,
2013-07-27 11:13:00,67.8,48.3,30.13,North,-999,-999.0,-999.0,49,0.00,,,0.00,AD6XL-WX-0.1,2013-07-27 18:13:00,
2013-07-27 11:18:00,68.0,48.3,30.13,North,-999,-999.0,-999.0,49,0.00,,,0.00,AD6XL-WX-0.1,2013-07-27 18:18:00,
2013-07-27 11:24:00,68.3,48.3,30.13,North,-999,-999.0,-999.0,48,0.00,,,0.00,AD6XL-WX-0.1,2013-07-27 18:24:00,
2013-07-27 11:29:00,68.6,48.5,30.12,North,-999,-999.0,-999.0,48,0.00,,,0.00,AD6XL-WX-0.1,2013-07-27 18:29:00,
2013-07-27 11:34:00,68.8,48.4,30.12,North,-999,-999.0,-999.0,48,0.00,,,0.00,AD6XL-WX-0.1,2013-07-27 18:34:00,
2013-07-27 11:39:00,69.1,48.2,30.12,North,-999,-999.0,-999.0,47,0.00,,,0.00,AD6XL-WX-0.1,2013-07-27 18:39:00,
2013-07-27 11:44:00,69.2,47.8,30.12,North,-999,-999.0,-999.0,46,0.00,,,0.00,AD6XL-WX-0.1,2013-07-27 18:44:00,
2013-07-27 11:49:00,69.4,47.5,30.12,North,-999,-999.0,-999.0,45,0.00,,,0.00,AD6XL-WX-0.1,2013-07-27 18:49:00,
2013-07-27 11:54:00,69.5,47.5,30.12,North,-999,-999.0,-999.0,45,0.00,,,0.00,AD6XL-WX-0.1,2013-07-27 18:54:00,
2013-07-27 11:59:00,69.8,47.8,30.12,North,-999,-999.0,-999.0,45,0.00,,,0.00,AD6XL-WX-0.1,2013-07-27 18:59:00,
2013-07-27 12:04:00,70.0,48.1,30.12,North,-999,-999.0,-999.0,45,0.00,,,0.00,AD6XL-WX-0.1,2013-07-27 19:04:00,
2013-07-27 12:09:00,70.2,48.0,30.12,North,-999,-999.0,-999.0,45,0.00,,,0.00,AD6XL-WX-0.1,2013-07-27 19:09:00,
2013-07-27 12:14:00,70.5,47.9,30.12,North,-999,-999.0,-999.0,44,0.00,,,0.00,AD6XL-WX-0.1,2013-07-27 19:14:00,
2013-07-27 12:20:00,70.8,47.7,30.11,North,-999,-999.0,-999.0,43,0.00,,,0.00,AD6XL-WX-0.1,2013-07-27 19:20:00,
2013-07-27 12:25:00,71.0,47.7,30.11,North,-999,-999.0,-999.0,43,0.00,,,0.00,AD6XL-WX-0.1,2013-07-27 19:25:00,
2013-07-27 12:30:00,71.2,47.8,30.11,North,-999,-999.0,-999.0,43,0.00,,,0.00,AD6XL-WX-0.1,2013-07-27 19:30:00,
2013-07-27 12:35:00,71.4,48.0,30.11,North,-999,-999.0,-999.0,43,0.00,,,0.00,AD6XL-WX-0.1,2013-07-27 19:35:00,
2013-07-27 12:40:00,71.7,48.5,30.10,North,-999,-999.0,-999.0,43,0.00,,,0.00,AD6XL-WX-0.1,2013-07-27 19:40:00,
2013-07-27 12:45:00,71.9,48.7,30.10,North,-999,-999.0,-999.0,43,0.00,,,0.00,AD6XL-WX-0.1,2013-07-27 19:45:00,
2013-07-27 12:50:00,72.2,48.9,30.10,North,-999,-999.0,-999.0,43,0.00,,,0.00,AD6XL-WX-0.1,2013-07-27 19:50:00,
2013-07-27 12:55:00,72.5,48.5,30.10,North,-999,-999.0,-999.0,42,0.00,,,0.00,AD6XL-WX-0.1,2013-07-27 19:55:00,
2013-07-27 13:00:00,72.9,48.1,30.09,North,-999,-999.0,-999.0,41,0.00,,,0.00,AD6XL-WX-0.1,2013-07-27 20:00:00,
2013-07-27 13:05:00,73.4,47.7,30.09,North,-999,-999.0,-999.0,40,0.00,,,0.00,AD6XL-WX-0.1,2013-07-27 20:05:00,
2013-07-27 13:11:00,73.9,47.7,30.09,North,-999,-999.0,-999.0,39,0.00,,,0.00,AD6XL-WX-0.1,2013-07-27 20:11:00,
2013-07-27 13:16:00,74.3,47.3,30.09,North,-999,-999.0,-999.0,38,0.00,,,0.00,AD6XL-WX-0.1,2013-07-27 20:16:00,
2013-07-27 13:21:00,74.5,47.1,30.09,North,-999,-999.0,-999.0,37,0.00,,,0.00,AD6XL-WX-0.1,2013-07-27 20:21:00,
2013-07-27 13:26:00,74.8,46.6,30.09,North,-999,-999.0,-999.0,36,0.00,,,0.00,AD6XL-WX-0.1,2013-07-27 20:26:00,
2013-07-27 13:31:00,75.1,46.4,30.09,North,-999,-999.0,-999.0,36,0.00,,,0.00,AD6XL-WX-0.1,2013-07-27 20:31:00,
2013-07-27 13:36:00,75.4,45.8,30.08,North,-999,-999.0,-999.0,34,0.00,,,0.00,AD6XL-WX-0.1,2013-07-27 20:36:00,
2013-07-27 13:41:00,75.8,45.2,30.08,North,-999,-999.0,-999.0,33,0.00,,,0.00,AD6XL-WX-0.1,2013-07-27 20:41:00,
2013-07-27 13:46:00,76.2,43.9,30.08,North,-999,-999.0,-999.0,31,0.00,,,0.00,AD6XL-WX-0.1,2013-07-27 20:46:00,
2013-07-27 13:52:00,76.5,43.5,30.08,North,-999,-999.0,-999.0,30,0.00,,,0.00,AD6XL-WX-0.1,2013-07-27 20:52:00,
2013-07-27 13:57:00,76.9,43.4,30.08,North,-999,-999.0,-999.0,30,0.00,,,0.00,AD6XL-WX-0.1,2013-07-27 20:57:00,
2013-07-27 14:02:00,77.3,43.0,30.07,North,-999,-999.0,-999.0,29,0.00,,,0.00,AD6XL-WX-0.1,2013-07-27 21:02:00,
2013-07-27 14:07:00,77.6,43.0,30.07,North,-999,-999.0,-999.0,29,0.00,,,0.00,AD6XL-WX-0.1,2013-07-27 21:07:00,
2013-07-27 14:12:00,78.0,42.6,30.07,North,-999,-999.0,-999.0,28,0.00,,,0.00,AD6XL-WX-0.1,2013-07-27 21:12:00,
2013-07-27 14:17:00,78.3,42.9,30.06,North,-999,-999.0,-999.0,28,0.00,,,0.00,AD6XL-WX-0.1,2013-07-27 21:17:00,
2013-07-27 14:22:00,78.6,43.6,30.06,North,-999,-999.0,-999.0,28,0.00,,,0.00,AD6XL-WX-0.1,2013-07-27 21:22:00,
2013-07-27 14:28:00,79.0,43.7,30.06,North,-999,-999.0,-999.0,28,0.00,,,0.00,AD6XL-WX-0.1,2013-07-27 21:28:00,
2013-07-27 14:33:00,79.3,44.0,30.06,North,-999,-999.0,-999.0,28,0.00,,,0.00,AD6XL-WX-0.1,2013-07-27 21:33:00,
2013-07-27 14:38:00,79.7,43.6,30.06,North,-999,-999.0,-999.0,27,0.00,,,0.00,AD6XL-WX-0.1,2013-07-27 21:38:00,
2013-07-27 14:43:00,80.0,43.8,30.05,North,-999,-999.0,-999.0,27,0.00,,,0.00,AD6XL-WX-0.1,2013-07-27 21:43:00,
2013-07-27 14:48:00,80.3,43.9,30.05,North,-999,-999.0,-999.0,27,0.00,,,0.00,AD6XL-WX-0.1,2013-07-27 21:48:00,
2013-07-27 14:53:00,80.6,43.9,30.05,North,-999,-999.0,-999.0,27,0.00,,,0.00,AD6XL-WX-0.1,2013-07-27 21:53:00,
2013-07-27 14:58:00,80.9,43.9,30.05,North,-999,-999.0,-999.0,27,0.00,,,0.00,AD6XL-WX-0.1,2013-07-27 21:58:00,
2013-07-27 15:03:00,81.1,43.6,30.05,North,-999,-999.0,-999.0,26,0.00,,,0.00,AD6XL-WX-0.1,2013-07-27 22:03:00,
2013-07-27 15:08:00,81.3,43.3,30.04,North,-999,-999.0,-999.0,26,0.00,,,0.00,AD6XL-WX-0.1,2013-07-27 22:08:00,
2013-07-27 15:13:00,81.5,43.5,30.04,North,-999,-999.0,-999.0,26,0.00,,,0.00,AD6XL-WX-0.1,2013-07-27 22:13:00,
2013-07-27 15:19:00,81.6,43.9,30.04,North,-999,-999.0,-999.0,26,0.00,,,0.00,AD6XL-WX-0.1,2013-07-27 22:19:00,
2013-07-27 15:24:00,81.8,44.7,30.03,North,-999,-999.0,-999.0,27,0.00,,,0.00,AD6XL-WX-0.1,2013-07-27 22:24:00,
2013-07-27 15:29:00,82.1,45.3,30.03,North,-999,-999.0,-999.0,27,0.00,,,0.00,AD6XL-WX-0.1,2013-07-27 22:29:00,
2013-07-27 15:34:00,82.4,45.3,30.03,North,-999,-999.0,-999.0,27,0.00,,,0.00,AD6XL-WX-0.1,2013-07-27 22:34:00,
2013-07-27 15:39:00,82.8,45.4,30.03,North,-999,-999.0,-999.0,26,0.00,,,0.00,AD6XL-WX-0.1,2013-07-27 22:39:00,
2013-07-27 15:44:00,83.1,45.4,30.02,North,-999,-999.0,-999.0,26,0.00,,,0.00,AD6XL-WX-0.1,2013-07-27 22:44:00,
2013-07-27 15:49:00,83.4,45.7,30.02,North,-999,-999.0,-999.0,26,0.00,,,0.00,AD6XL-WX-0.1,2013-07-27 22:49:00,
2013-07-27 15:54:00,83.6,45.7,30.02,North,-999,-999.0,-999.0,26,0.00,,,0.00,AD6XL-WX-0.1,2013-07-27 22:54:00,
2013-07-27 15:59:00,83.6,45.7,30.02,North,-999,-999.0,-999.0,26,0.00,,,0.00,AD6XL-WX-0.1,2013-07-27 22:59:00,
2013-07-27 16:04:00,83.7,45.7,30.02,North,-999,-999.0,-999.0,26,0.00,,,0.00,AD6XL-WX-0.1,2013-07-27 23:04:00,
2013-07-27 16:09:00,83.8,45.9,30.02,North,-999,-999.0,-999.0,26,0.00,,,0.00,AD6XL-WX-0.1,2013-07-27 23:09:00,
2013-07-27 16:12:00,83.9,46.0,30.02,North,-999,-999.0,-999.0,26,0.00,,,0.00,AD6XL-WX-0.1,2013-07-27 23:12:00,
2013-07-27 16:17:00,84.2,46.0,30.01,North,-999,-999.0,-999.0,26,0.00,,,0.00,AD6XL-WX-0.1,2013-07-27 23:17:00,
2013-07-27 16:22:00,84.3,46.0,30.01,North,-999,-999.0,-999.0,26,0.00,,,0.00,AD6XL-WX-0.1,2013-07-27 23:22:00,
2013-07-27 16:27:00,84.4,46.1,30.01,North,-999,-999.0,-999.0,26,0.00,,,0.00,AD6XL-WX-0.1,2013-07-27 23:27:00,
2013-07-27 16:32:00,84.6,46.5,30.01,North,-999,-999.0,-999.0,26,0.00,,,0.00,AD6XL-WX-0.1,2013-07-27 23:32:00,
2013-07-27 16:37:00,84.7,46.5,30.01,North,-999,-999.0,-999.0,26,0.00,,,0.00,AD6XL-WX-0.1,2013-07-27 23:37:00,
2013-07-27 16:42:00,84.8,46.5,30.01,North,-999,-999.0,-999.0,26,0.00,,,0.00,AD6XL-WX-0.1,2013-07-27 23:42:00,
2013-07-27 16:48:00,84.9,46.6,30.00,North,-999,-999.0,-999.0,26,0.00,,,0.00,AD6XL-WX-0.1,2013-07-27 23:48:00,
2013-07-27 16:53:00,84.9,47.0,30.00,North,-999,-999.0,-999.0,26,0.00,,,0.00,AD6XL-WX-0.1,2013-07-27 23:53:00,
2013-07-27 16:58:00,85.0,47.1,30.00,North,-999,-999.0,-999.0,26,0.00,,,0.00,AD6XL-WX-0.1,2013-07-27 23:58:00,
2013-07-27 17:03:00,84.9,46.9,29.99,North,-999,-999.0,-999.0,26,0.00,,,0.00,AD6XL-WX-0.1,2013-07-28 00:03:00,
2013-07-27 17:08:00,84.7,46.9,29.99,North,-999,-999.0,-999.0,26,0.00,,,0.00,AD6XL-WX-0.1,2013-07-28 00:08:00,
2013-07-27 17:13:00,84.4,47.1,29.99,North,-999,-999.0,-999.0,27,0.00,,,0.00,AD6XL-WX-0.1,2013-07-28 00:13:00,
2013-07-27 17:18:00,84.0,47.7,29.99,North,-999,-999.0,-999.0,28,0.00,,,0.00,AD6XL-WX-0.1,2013-07-28 00:18:00,
2013-07-27 17:23:00,83.6,48.0,29.99,North,-999,-999.0,-999.0,28,0.00,,,0.00,AD6XL-WX-0.1,2013-07-28 00:23:00,
2013-07-27 17:28:00,83.4,48.1,29.99,North,-999,-999.0,-999.0,29,0.00,,,0.00,AD6XL-WX-0.1,2013-07-28 00:28:00,
2013-07-27 17:33:00,83.1,48.2,29.99,North,-999,-999.0,-999.0,29,0.00,,,0.00,AD6XL-WX-0.1,2013-07-28 00:33:00,
2013-07-27 17:39:00,82.9,48.4,29.99,North,-999,-999.0,-999.0,30,0.00,,,0.00,AD6XL-WX-0.1,2013-07-28 00:39:00,
2013-07-27 17:44:00,82.7,48.7,29.99,North,-999,-999.0,-999.0,30,0.00,,,0.00,AD6XL-WX-0.1,2013-07-28 00:44:00,
2013-07-27 17:49:00,82.3,48.8,29.99,North,-999,-999.0,-999.0,31,0.00,,,0.00,AD6XL-WX-0.1,2013-07-28 00:49:00,
2013-07-27 17:54:00,82.1,49.0,29.99,North,-999,-999.0,-999.0,31,0.00,,,0.00,AD6XL-WX-0.1,2013-07-28 00:54:00,
2013-07-27 17:59:00,81.9,49.2,29.99,North,-999,-999.0,-999.0,32,0.00,,,0.00,AD6XL-WX-0.1,2013-07-28 00:59:00,
2013-07-27 18:04:00,81.7,49.4,29.99,North,-999,-999.0,-999.0,32,0.00,,,0.00,AD6XL-WX-0.1,2013-07-28 01:04:00,
2013-07-27 18:09:00,81.5,49.5,29.98,North,-999,-999.0,-999.0,32,0.00,,,0.00,AD6XL-WX-0.1,2013-07-28 01:09:00,
2013-07-27 18:14:00,81.2,49.4,29.98,North,-999,-999.0,-999.0,33,0.00,,,0.00,AD6XL-WX-0.1,2013-07-28 01:14:00,
2013-07-27 18:19:00,80.9,49.4,29.98,North,-999,-999.0,-999.0,33,0.00,,,0.00,AD6XL-WX-0.1,2013-07-28 01:19:00,
2013-07-27 18:24:00,80.6,49.4,29.98,North,-999,-999.0,-999.0,33,0.00,,,0.00,AD6XL-WX-0.1,2013-07-28 01:24:00,
2013-07-27 18:29:00,80.4,49.5,29.98,North,-999,-999.0,-999.0,34,0.00,,,0.00,AD6XL-WX-0.1,2013-07-28 01:29:00,
2013-07-27 18:34:00,80.1,49.7,29.98,North,-999,-999.0,-999.0,34,0.00,,,0.00,AD6XL-WX-0.1,2013-07-28 01:34:00,
2013-07-27 18:39:00,79.9,49.9,29.98,North,-999,-999.0,-999.0,35,0.00,,,0.00,AD6XL-WX-0.1,2013-07-28 01:39:00,
2013-07-27 18:45:00,79.7,50.1,29.98,North,-999,-999.0,-999.0,35,0.00,,,0.00,AD6XL-WX-0.1,2013-07-28 01:45:00,
2013-07-27 18:50:00,79.5,50.2,29.98,North,-999,-999.0,-999.0,35,0.00,,,0.00,AD6XL-WX-0.1,2013-07-28 01:50:00,
2013-07-27 18:55:00,79.4,50.2,29.98,North,-999,-999.0,-999.0,36,0.00,,,0.00,AD6XL-WX-0.1,2013-07-28 01:55:00,
2013-07-27 19:00:00,79.2,50.0,29.98,North,-999,-999.0,-999.0,36,0.00,,,0.00,AD6XL-WX-0.1,2013-07-28 02:00:00,
2013-07-27 19:05:00,79.0,49.8,29.98,North,-999,-999.0,-999.0,36,0.00,,,0.00,AD6XL-WX-0.1,2013-07-28 02:05:00,
2013-07-27 19:10:00,78.7,49.6,29.98,North,-999,-999.0,-999.0,36,0.00,,,0.00,AD6XL-WX-0.1,2013-07-28 02:10:00,
2013-07-27 19:15:00,78.5,49.6,29.98,North,-999,-999.0,-999.0,36,0.00,,,0.00,AD6XL-WX-0.1,2013-07-28 02:15:00,
2013-07-27 19:20:00,78.3,49.6,29.98,North,-999,-999.0,-999.0,36,0.00,,,0.00,AD6XL-WX-0.1,2013-07-28 02:20:00,
2013-07-27 19:25:00,78.1,49.6,29.98,North,-999,-999.0,-999.0,36,0.00,,,0.00,AD6XL-WX-0.1,2013-07-28 02:25:00,
2013-07-27 19:30:00,78.1,49.6,29.98,North,-999,-999.0,-999.0,36,0.00,,,0.00,AD6XL-WX-0.1,2013-07-28 02:30:00,
2013-07-27 19:36:00,77.9,49.7,29.98,North,-999,-999.0,-999.0,37,0.00,,,0.00,AD6XL-WX-0.1,2013-07-28 02:36:00,
2013-07-27 19:41:00,77.8,49.8,29.98,North,-999,-999.0,-999.0,37,0.00,,,0.00,AD6XL-WX-0.1,2013-07-28 02:41:00,
2013-07-27 19:46:00,77.5,49.8,29.98,North,-999,-999.0,-999.0,37,0.00,,,0.00,AD6XL-WX-0.1,2013-07-28 02:46:00,
2013-07-27 19:51:00,77.3,49.8,29.98,North,-999,-999.0,-999.0,38,0.00,,,0.00,AD6XL-WX-0.1,2013-07-28 02:51:00,
2013-07-27 19:56:00,77.0,49.7,29.98,North,-999,-999.0,-999.0,38,0.00,,,0.00,AD6XL-WX-0.1,2013-07-28 02:56:00,
2013-07-27 20:01:00,76.7,49.7,29.98,North,-999,-999.0,-999.0,38,0.00,,,0.00,AD6XL-WX-0.1,2013-07-28 03:01:00,
2013-07-27 20:07:00,76.3,49.8,29.98,North,-999,-999.0,-999.0,39,0.00,,,0.00,AD6XL-WX-0.1,2013-07-28 03:07:00,
2013-07-27 20:12:00,76.0,49.8,29.98,North,-999,-999.0,-999.0,39,0.00,,,0.00,AD6XL-WX-0.1,2013-07-28 03:12:00,
2013-07-27 20:17:00,75.6,49.7,29.98,North,-999,-999.0,-999.0,40,0.00,,,0.00,AD6XL-WX-0.1,2013-07-28 03:17:00,
2013-07-27 20:22:00,75.1,49.4,29.98,North,-999,-999.0,-999.0,40,0.00,,,0.00,AD6XL-WX-0.1,2013-07-28 03:22:00,
2013-07-27 20:27:00,74.6,49.2,29.98,North,-999,-999.0,-999.0,40,0.00,,,0.00,AD6XL-WX-0.1,2013-07-28 03:27:00,
2013-07-27 20:32:00,74.1,49.0,29.98,North,-999,-999.0,-999.0,41,0.00,,,0.00,AD6XL-WX-0.1,2013-07-28 03:32:00,
2013-07-27 20:37:00,73.5,49.0,29.98,North,-999,-999.0,-999.0,41,0.00,,,0.00,AD6XL-WX-0.1,2013-07-28 03:37:00,
2013-07-27 20:42:00,73.0,49.0,29.98,North,-999,-999.0,-999.0,42,0.00,,,0.00,AD6XL-WX-0.1,2013-07-28 03:42:00,
2013-07-27 20:47:00,72.5,49.1,29.98,North,-999,-999.0,-999.0,43,0.00,,,0.00,AD6XL-WX-0.1,2013-07-28 03:47:00,
2013-07-27 20:53:00,72.1,49.1,29.98,North,-999,-999.0,-999.0,44,0.00,,,0.00,AD6XL-WX-0.1,2013-07-28 03:53:00,
2013-07-27 20:58:00,71.6,49.1,29.98,North,-999,-999.0,-999.0,44,0.00,,,0.00,AD6XL-WX-0.1,2013-07-28 03:58:00,
2013-07-27 21:01:00,71.3,49.2,29.98,North,-999,-999.0,-999.0,45,0.00,,,0.00,AD6XL-WX-0.1,2013-07-28 04:01:00,
2013-07-27 21:02:00,71.3,49.2,29.98,North,-999,-999.0,-999.0,45,0.00,,,0.00,AD6XL-WX-0.1,2013-07-28 04:02:00,
2013-07-27 21:03:00,71.2,49.2,29.98,North,-999,-999.0,-999.0,45,0.00,,,0.00,AD6XL-WX-0.1,2013-07-28 04:03:00,
2013-07-27 21:08:00,70.6,49.5,29.98,North,-999,-999.0,-999.0,47,0.00,,,0.00,AD6XL-WX-0.1,2013-07-28 04:08:00,
2013-07-27 21:13:00,70.1,49.7,29.99,North,-999,-999.0,-999.0,48,0.00,,,0.00,AD6XL-WX-0.1,2013-07-28 04:13:00,
2013-07-27 21:18:00,69.5,49.8,29.99,North,-999,-999.0,-999.0,49,0.00,,,0.00,AD6XL-WX-0.1,2013-07-28 04:18:00,
2013-07-27 21:23:00,69.0,49.9,29.99,North,-999,-999.0,-999.0,50,0.00,,,0.00,AD6XL-WX-0.1,2013-07-28 04:23:00,
2013-07-27 21:28:00,68.5,49.8,29.99,North,-999,-999.0,-999.0,51,0.00,,,0.00,AD6XL-WX-0.1,2013-07-28 04:28:00,
2013-07-27 21:33:00,68.0,49.7,29.99,North,-999,-999.0,-999.0,51,0.00,,,0.00,AD6XL-WX-0.1,2013-07-28 04:33:00,
2013-07-27 21:38:00,67.6,49.7,29.99,North,-999,-999.0,-999.0,52,0.00,,,0.00,AD6XL-WX-0.1,2013-07-28 04:38:00,
2013-07-27 21:43:00,67.2,49.7,29.99,North,-999,-999.0,-999.0,53,0.00,,,0.00,AD6XL-WX-0.1,2013-07-28 04:43:00,
2013-07-27 21:48:00,66.8,49.8,29.99,North,-999,-999.0,-999.0,54,0.00,,,0.00,AD6XL-WX-0.1,2013-07-28 04:48:00,
2013-07-27 21:54:00,66.4,50.0,29.99,North,-999,-999.0,-999.0,55,0.00,,,0.00,AD6XL-WX-0.1,2013-07-28 04:54:00,
2013-07-27 21:59:00,66.1,50.1,29.99,North,-999,-999.0,-999.0,56,0.00,,,0.00,AD6XL-WX-0.1,2013-07-28 04:59:00,
2013-07-27 22:04:00,65.7,50.1,29.99,North,-999,-999.0,-999.0,57,0.00,,,0.00,AD6XL-WX-0.1,2013-07-28 05:04:00,
2013-07-27 22:09:00,65.4,50.2,29.99,North,-999,-999.0,-999.0,57,0.00,,,0.00,AD6XL-WX-0.1,2013-07-28 05:09:00,
2013-07-27 22:14:00,65.0,50.4,29.99,North,-999,-999.0,-999.0,58,0.00,,,0.00,AD6XL-WX-0.1,2013-07-28 05:14:00,
2013-07-27 22:19:00,64.7,50.5,29.99,North,-999,-999.0,-999.0,60,0.00,,,0.00,AD6XL-WX-0.1,2013-07-28 05:19:00,
2013-07-27 22:24:00,64.3,50.6,29.99,North,-999,-999.0,-999.0,61,0.00,,,0.00,AD6XL-WX-0.1,2013-07-28 05:24:00,
2013-07-27 22:29:00,63.9,50.6,30.00,North,-999,-999.0,-999.0,62,0.00,,,0.00,AD6XL-WX-0.1,2013-07-28 05:29:00,
2013-07-27 22:34:00,63.5,50.6,30.00,North,-999,-999.0,-999.0,62,0.00,,,0.00,AD6XL-WX-0.1,2013-07-28 05:34:00,
2013-07-27 22:39:00,63.2,50.5,30.00,North,-999,-999.0,-999.0,63,0.00,,,0.00,AD6XL-WX-0.1,2013-07-28 05:39:00,
2013-07-27 22:44:00,62.9,50.4,30.00,North,-999,-999.0,-999.0,63,0.00,,,0.00,AD6XL-WX-0.1,2013-07-28 05:44:00,
2013-07-27 22:50:00,62.7,50.2,30.00,North,-999,-999.0,-999.0,63,0.00,,,0.00,AD6XL-WX-0.1,2013-07-28 05:50:00,
2013-07-27 22:55:00,62.4,50.1,30.00,North,-999,-999.0,-999.0,64,0.00,,,0.00,AD6XL-WX-0.1,2013-07-28 05:55:00,
2013-07-27 23:00:00,62.2,50.0,30.01,North,-999,-999.0,-999.0,64,0.00,,,0.00,AD6XL-WX-0.1,2013-07-28 06:00:00,
2013-07-27 23:05:00,62.0,49.9,30.01,North,-999,-999.0,-999.0,64,0.00,,,0.00,AD6XL-WX-0.1,2013-07-28 06:05:00,
2013-07-27 23:10:00,61.8,49.9,30.01,North,-999,-999.0,-999.0,64,0.00,,,0.00,AD6XL-WX-0.1,2013-07-28 06:10:00,
2013-07-27 23:15:00,61.7,49.8,30.01,North,-999,-999.0,-999.0,65,0.00,,,0.00,AD6XL-WX-0.1,2013-07-28 06:15:00,
2013-07-27 23:20:00,61.5,49.8,30.01,North,-999,-999.0,-999.0,65,0.00,,,0.00,AD6XL-WX-0.1,2013-07-28 06:20:00,
2013-07-27 23:25:00,61.3,49.6,30.01,North,-999,-999.0,-999.0,65,0.00,,,0.00,AD6XL-WX-0.1,2013-07-28 06:25:00,
2013-07-27 23:30:00,61.2,49.5,30.02,North,-999,-999.0,-999.0,65,0.00,,,0.00,AD6XL-WX-0.1,2013-07-28 06:30:00,
2013-07-27 23:35:00,61.1,49.5,30.02,North,-999,-999.0,-999.0,65,0.00,,,0.00,AD6XL-WX-0.1,2013-07-28 06:35:00,
2013-07-27 23:41:00,60.9,49.4,30.02,North,-999,-999.0,-999.0,65,0.00,,,0.00,AD6XL-WX-0.1,2013-07-28 06:41:00,
2013-07-27 23:46:00,60.8,49.5,30.02,North,-999,-999.0,-999.0,66,0.00,,,0.00,AD6XL-WX-0.1,2013-07-28 06:46:00,
2013-07-27 23:51:00,60.6,49.5,30.02,North,-999,-999.0,-999.0,66,0.00,,,0.00,AD6XL-WX-0.1,2013-07-28 06:51:00,
2013-07-27 23:56:00,60.4,49.4,30.02,North,-999,-999.0,-999.0,67,0.00,,,0.00,AD6XL-WX-0.1,2013-07-28 06:56:00,